Location: El Manguito
(10.2358°N, 67.3634°W)
Time: 21:54:39
(UTC+00:00)

Aurora 2 Rocket - Pass Details

Date: 09 December 2024
Orbit: 386 x 1590 km, 25.0° (Epoch: 12 January)

Event Time Altitude Azimuth Distance (km) Brightness Sun altitude
Exits shadow 07:56:15 15° 55° (NE) 2,054 5.5 -37.4°
Drops below altitude 10° 07:57:20 10° 64° (ENE) 2,314 5.9 -37.2°
Sets 07:59:48 0° 77° (ENE) 3,052 6.8 -36.6°
